DW3319 Weather Reports


Display with metric or nautical units.
time (UTC)temp
F
wind
direction
speed
MPH
gust
MPH
rain 1hr
in
rain 24hr
in
rain mn
in
humidity
%
barometer
mb
20260903180056 78 51 1.0 4.0 0.26 0.95 0.32 97 1015.4
20260903174551 78 108 1.0 6.0 0.32 0.95 0.32 96 1015.5
20260903173050 79 0 1.0 3.0 0.32 0.95 0.32 96 1015.8
20260903171555 79 287 1.0 8.0 0.31 0.94 0.31 95 1015.9
20260903170057 81 212 7.0 13.0 0.06 0.69 0.06 90 1015.8
20260903164557 85 238 5.0 12.0 0.00 0.63 0.00 85 1015.6
20260903163051 88 178 1.0 6.0 0.00 0.63 0.00 86 1015.5
20260903161558 88 225 2.0 8.0 0.00 0.63 0.00 86 1015.5
20260903160117 87 59 2.0 6.0 0.00 0.63 0.00 89 1015.4
20260903154605 85 9 1.0 4.0 0.00 0.67 0.00 97 1015.4
20260903153051 83 156 1.0 7.0 0.00 0.67 0.00 100 1015.6
20260903151556 81 0 1.0 7.0 0.00 0.67 0.00 100 1015.9
20260903150057 81 9 1.0 3.0 0.00 0.67 0.00 100 1015.7
20260903144552 80 0 1.0 4.0 0.00 0.67 0.00 100 1015.7
20260903143103 79 250 2.0 4.0 0.00 0.67 0.00 100 1015.8
20260903141605 79 247 1.0 5.0 0.00 0.67 0.00 100 1015.8
20260903140059 79 41 0.0 3.0 0.00 0.67 0.00 100 1015.7
20260903134557 79 0 1.0 3.0 0.00 0.67 0.00 100 1015.7
20260903133048 78 221 0.0 2.0 0.00 0.67 0.00 100 1015.7
20260903131557 78 0 0.0 3.0 0.00 0.67 0.00 100 1015.6
20260903130056 77 0 0.0 2.0 0.00 0.67 0.00 100 1015.6
20260903124549 77 0 0.0 3.0 0.00 0.67 0.00 100 1015.6
20260903123056 77 0 0.0 2.0 0.00 0.67 0.00 100 1015.5
20260903121555 76 93 0.0 2.0 0.00 0.67 0.00 100 1015.4
20260903120053 76 0 0.0 1.0 0.00 0.67 0.00 100 1015.3
20260903114547 76 0 0.0 2.0 0.00 0.67 0.00 100 1015.2
20260903113045 76 0 0.0 1.0 0.00 0.67 0.00 100 1015.1
20260903111555 76 0 0.0 1.0 0.00 0.67 0.00 100 1015.0
20260903110053 76 0 0.0 2.0 0.00 0.67 0.00 100 1014.7
20260903104603 76 0 0.0 2.0 0.00 0.67 0.00 100 1014.7
20260903103102 77 0 0.0 2.0 0.00 0.67 0.00 100 1014.6
20260903101606 77 67 0.0 2.0 0.00 0.67 0.00 100 1014.6
20260903100048 77 0 0.0 2.0 0.00 0.67 0.00 100 1014.5
20260903094549 77 0 0.0 2.0 0.00 0.67 0.00 100 1014.5
20260903093110 77 238 1.0 3.0 0.00 0.67 0.00 100 1014.3
20260903091552 77 137 0.0 2.0 0.00 0.67 0.00 100 1014.2
20260903090054 77 93 1.0 5.0 0.00 0.67 0.00 100 1014.3
20260903084547 76 249 1.0 4.0 0.00 0.67 0.00 100 1014.1
20260903083044 76 0 0.0 2.0 0.00 0.67 0.00 100 1014.4
20260903081553 76 0 0.0 1.0 0.00 0.67 0.00 100 1014.5
20260903080043 76 0 0.0 1.0 0.00 0.67 0.00 100 1014.5
20260903074554 75 0 0.0 0.0 0.00 0.67 0.00 100 1014.5
20260903073050 75 0 0.0 1.0 0.00 0.67 0.00 100 1014.5
20260903071547 75 0 0.0 1.0 0.00 0.67 0.00 100 1014.8
20260903070045 76 0 0.0 1.0 0.00 0.67 0.00 100 1015.0
20260903064551 76 0 0.0 1.0 0.00 0.67 0.00 100 1015.0
20260903063124 76 0 0.0 1.0 0.00 0.67 0.00 100 1015.1
20260903061555 76 309 0.0 1.0 0.00 0.67 0.00 100 1015.1
20260903060052 76 0 0.0 2.0 0.00 0.67 0.00 100 1015.1
20260903054556 76 0 0.0 2.0 0.00 0.67 0.00 100 1015.0
20260903053057 76 0 0.0 1.0 0.00 0.67 0.00 100 1014.9
20260903051551 76 0 0.0 1.0 0.00 0.67 0.00 100 1015.1
20260903050109 76 0 0.0 1.0 0.00 0.67 0.00 99 1015.1
20260903044555 76 0 0.0 2.0 0.00 0.67 0.67 99 1015.2
20260903043056 76 0 0.0 2.0 0.00 0.67 0.67 99 1015.1
20260903041554 77 0 0.0 2.0 0.00 0.67 0.67 99 1015.4
20260903040056 77 309 0.0 1.0 0.00 0.67 0.67 99 1015.2
20260903034556 77 0 0.0 1.0 0.00 0.67 0.67 99 1015.4
20260903033053 77 0 0.0 1.0 0.00 0.67 0.67 99 1015.5
20260903031559 77 0 0.0 1.0 0.00 0.67 0.67 99 1015.7
20260903030048 77 0 0.0 1.0 0.00 0.67 0.67 99 1015.7
20260903024557 77 0 0.0 1.0 0.00 0.67 0.67 99 1015.6
20260903023054 77 0 0.0 2.0 0.00 0.67 0.67 99 1015.4
20260903021550 77 126 0.0 2.0 0.00 0.67 0.67 99 1015.0
20260903020056 77 0 0.0 1.0 0.00 0.67 0.67 99 1014.9
20260903014550 77 0 0.0 2.0 0.00 0.97 0.67 98 1014.8
20260903013053 77 0 0.0 2.0 0.00 0.97 0.67 98 1014.9
20260903011601 77 0 0.0 1.0 0.00 0.97 0.67 98 1014.7
20260903010046 77 0 0.0 2.0 0.00 0.97 0.67 98 1014.5
20260903004544 77 0 0.0 1.0 0.00 1.19 0.67 98 1014.3
20260903003048 78 0 0.0 2.0 0.02 1.19 0.67 98 1014.4
20260903001550 78 0 0.0 1.0 0.02 1.19 0.67 98 1014.7
20260903000044 78 0 0.0 1.0 0.12 1.19 0.67 98 1014.7
20260902234554 78 61 0.0 3.0 0.51 1.19 0.67 97 1014.8
20260902233059 78 146 0.0 2.0 0.51 1.16 0.65 97 1014.9
20260902231558 77 93 0.0 8.0 0.61 1.16 0.65 97 1015.0
20260902230043 78 221 4.0 17.0 0.50 1.05 0.54 96 1015.0
20260902224552 80 265 1.0 2.0 0.12 0.68 0.16 94 1014.6
20260902223053 81 265 2.0 16.0 0.10 0.66 0.14 90 1014.8
20260902221551 85 115 1.0 4.0 0.00 0.56 0.04 87 1014.6
20260902220044 86 108 0.0 2.0 0.00 0.56 0.04 87 1014.5
20260902214554 86 0 0.0 5.0 0.00 0.56 0.04 86 1014.6
20260902213055 86 137 2.0 4.0 0.00 0.56 0.04 84 1014.5
20260902211554 87 153 2.0 6.0 0.00 0.56 0.04 84 1014.6
20260902210056 87 298 1.0 4.0 0.00 0.56 0.04 83 1015.0
20260902204556 87 149 2.0 8.0 0.00 0.56 0.04 82 1015.0
20260902203052 88 102 4.0 11.0 0.00 0.56 0.04 81 1015.2
20260902201548 88 76 1.0 7.0 0.00 0.56 0.04 85 1015.4
20260902194559 87 93 2.0 11.0 0.00 0.64 0.04 87 1015.6
20260902193051 86 250 2.0 7.0 0.00 0.64 0.04 90 1015.8
20260902191548 85 212 1.0 6.0 0.00 0.64 0.04 91 1015.7
20260902190100 83 193 1.0 5.0 0.00 0.64 0.04 92 1015.8
20260902184559 82 196 1.0 7.0 0.00 0.65 0.04 92 1015.9
20260902183050 82 171 3.0 6.0 0.00 0.65 0.04 92 1016.1
20260902181549 82 147 1.0 6.0 0.00 0.65 0.04 94 1016.0